{"data":{"norad_id":62387,"intl_designator":"2024-247L","name":"BANDWAGON-2 OBJECT L","alt_names":[],"object_type":"PAYLOAD","status":"ACTIVE","operator":null,"country":"TBD","launch_date":"2024-12-21","launch_site_code":"AFWTR","launch_vehicle":null,"mission":null,"orbit_class":"UNKNOWN","rcs_meters":null,"size_class":null,"mass_kg":null,"dimensions":null,"purposes":[],"wikipedia_slug":null,"has_3d_model":false,"image_url":null,"decayed_at":null,"tle_current":{"epoch":"2026-09-20T17:14:15.243072Z","epoch_age_seconds":293129,"freshness":"STALE","line1":"1 62387U 24247L   26263.71823198  .00066412  00000+0  70513-3 0  9990","line2":"2 62387  44.9874  62.6326 0009039 258.6281 101.3600 15.63199175 98388","mean_motion":15.63199175,"eccentricity":0.0009039,"inclination_deg":44.9874,"raan_deg":62.6326,"arg_perigee_deg":258.6281,"mean_anomaly_deg":101.36,"bstar":0.00070513,"rev_number":9838,"period_min":92.118779425533,"perigee_km":372.31562278999,"apogee_km":384.5301317361,"semimajor_km":6756.559877263,"source":"CELESTRAK","updated_at":"2026-09-23T09:00:21.393427Z"}}}